Regional Weather Roundup
Issued by NWS State College, PA

Home | Current Version | Previous Version | Graphics & Text | Print | Product List | Glossary Off
Versions: 1 2 3 4 5 6 7 8 9 10 11 12 13 14 15 16 17 18 19 20 21 22 23 24 25 26 27 28 29 30 31 32 33 34 35 36 37 38 39 40 41 42 43 44 45 46 47 48 49 50

000
ASUS41 KCTP 242310
RWRCTP

REGIONAL WEATHER ROUNDUP
NATIONAL WEATHER SERVICE STATE COLLEGE PA
700 PM EDT TUE MAY 24 2016

Note: "fair" indicates few or no clouds below 12,000 feet with no
significant weather and/or obstructions to visibility.

* = STATION THAT DOES NOT REPORT PRECIPITATION /E.G. RAIN...SNOW...ETC/
    THUNDER OR FOG.

PAZ002>004-007>009-013>016-020>023-029>032-250000-
WESTERN PENNSYLVANIA

CITY           SKY/WX    TMP DP  RH WIND       PRES   REMARKS
ERIE           SUNNY     75  39  27 W6        30.02F
MEADVILLE      SUNNY     73  40  30 NW5       30.05S
FRANKLIN*      SUNNY     75  39  27 W8        30.07S
NEW CASTLE     FAIR      78  47  33 W7        30.04S
BEAVER COUNTY  SUNNY     77  46  33 NW6       30.04F
BUTLER*        SUNNY     77  46  33 W7        30.07S
PITTSBURGH INT MOSUNNY   78  46  32 W10       30.04S
PITTSBURGH     MOSUNNY   77  45  32 W9        30.04S
INDIANA*       SUNNY     77  46  33 NW6G14    30.07F
LATROBE        MOSUNNY   75  46  35 NW7       30.05S
WASHINGTON CO* SUNNY     75  52  43 W6        30.06F
$$

PAZ004>006-010>012-017>019-024>028-033>037-041-042-045-046-049>053-250000-
CENTRAL PENNSYLVANIA

CITY           SKY/WX    TMP DP  RH WIND       PRES   REMARKS
BRADFORD       SUNNY     72  32  23 NW12      30.05S
DUBOIS         SUNNY     73  42  32 W9        30.03S
CLEARFIELD     SUNNY     77  40  26 NW10      30.02R
JOHNSTOWN      SUNNY     72  41  32 NW15      30.07S
ALTOONA        SUNNY     75  43  31 NW10      30.04R
STATE COLLEGE  SUNNY     77  43  29 W12G21    29.99S
WILLIAMSPORT   SUNNY     82  35  18 NW7       29.93R
SELINSGROVE    SUNNY     82  44  26 NW7       29.93S
FT INDIANTOWN  SUNNY     80  47  31 W10       29.94R
CAPITAL CITY   SUNNY     81  44  27 W17       29.95R
HARRISBURG     MOSUNNY   79  48  33 W13       29.94R
YORK           SUNNY     79  47  32 W7        29.97R
$$

PAZ038>040-043-044-047-048-054-055-060>062-067>071-250000-
EASTERN PENNSYLVANIA

CITY           SKY/WX    TMP DP  RH WIND       PRES   REMARKS
SCRANTON       MOSUNNY   80  39  23 N10       29.94R
MOUNT POCONO   CLOUDY    66  32  28 NW9       29.98R
ALLENTOWN      CLOUDY    81  42  25 N7        29.92R
QUAKERTOWN*    CLOUDY    77  46  33 CALM      29.94R
READING        SUNNY     80  45  28 NW8       29.92R
LANCASTER      MOSUNNY   77  48  35 W13       29.94R
COATESVILLE    CLEAR     75  48  38 W9        29.97R
POTTSTOWN      CLOUDY    78  44  29 NW6       29.93R
BLUE BELL      CLOUDY    70  57  64 CALM      29.91R
DOYLESTOWN     CLOUDY    77  43  29 W3        29.91R
WILLOW GROVE   NOT AVBL
NORTH PHILA    CLOUDY    77  48  35 W7        29.92R
PHILADELPHIA   CLOUDY    81  43  26 W14       29.92R
$$




USA.gov is the U.S. government's official web portal to all federal, state and local government web resources and services.